Weather in Zhdanovichi

Belarus     53°56′39″N   27°24′56″E
temp.,
°C
wind,
m/s
gust,
m/s
humid.,
%
clouds,
%
prec.,
mm/h
press.,
hPa
HPBL,
m
15 may, sat
sat1500:00+11se349261 0.0 100454
03:00+10sse2294100 0.1 100429
06:00+10sse2297100 0.8 100442
09:00+13sw238870 1.5 1005347
12:00+17sw337493 1.7 1005918
15:00+17wnw567674 6.9 10051047
18:00+18wnw46685 0.8 10061287
21:00+13w338078 0.8 100737
16 may, sun
sun1600:00+11w489394 0.0 1009191
03:00+10w369617 0.0 1010145
06:00+9sw249384 0.0 101186
09:00+13sw34735 0.0 1011489
12:00+17ssw3460100 0.0 10111188
15:00+18s455524 0.0 10101563
18:00+18sse465915 0.0 10091498
21:00+15ese3878100 0.0 1008195
17 may, mon
mon1700:00+14se51484100 0.2 1007447
03:00+12se3109694 0.8 1007359
06:00+12sse4897100 0.3 1007382
09:00+13s3693100 0.3 1008465
12:00+14s3588100 0.7 1008498
15:00+17sw2372100 1.3 1007926
18:00+17nw2367100 0.1 10061017
21:00+13nnw338189 0.4 100651
18 may, tue
tue1800:00+11n11886 0.0 100610
03:00+10nnw11910 0.0 100610
06:00+10sw11910 0.0 100610
09:00+14w2271100 0.0 1006348
12:00+16wsw346996 0.4 1006863
15:00+17w3561100 1.1 10061311
18:00+16wnw5770100 0.3 1006913
21:00+13w388086 0.3 1007297
19 may, wed
wed1900:00+10wnw378987 0.0 1008177
03:00+9wnw379367 0.0 1009163
06:00+8wnw3793100 0.0 1009194
09:00+11nw4679100 0.0 1010557
12:00+14nw4564100 0.1 10111235
15:00+16nw4455100 0.2 10111589
18:00+15wnw445797 0.0 10111251
21:00+12nw2373100 0.0 101264